Location: El Bakhil
(32.7726°N, 5.5387°W)
Time: 06:44:11
(UTC+00:00)

AO-73 - Pass Details

Date: 06 August 2021
Orbit: 581 x 661 km, 97.6° (Epoch: 27 September)

Event Time Altitude Azimuth Distance (km) Brightness Sun altitude
Rises 04:51:43 0° 15° (NNE) 2,973 ? -10.0°
Reaches altitude 10° 04:53:57 10° 19° (NNE) 2,067 ? -9.6°
Maximum altitude 04:58:26 64° 100° (E) 733 ? -8.8°
Drops below altitude 10° 05:02:56 10° 182° (S) 2,071 ? -7.9°
Sets 05:05:10 0° 186° (S) 2,979 ? -7.5°
